Miscellaneous Local Product
Issued by NWS North Platte, NE

Home | Current Version | Previous Version | Text Only | Print | Product List | Glossary On
Versions: 1 2 3 4 5 6 7 8 9 10 11 12 13 14 15 16 17 18 19 20 21 22 23 24 25 26 27 28 29 30 31 32 33 34 35 36 37 38 39 40 41 42 43 44 45 46 47 48 49 50
120
AXUS43 KLBF 280310
MISLBF


WESTERN AND NORTH CENTRAL NEBRASKA HOURLY WEATHER ROUNDUP
NATIONAL WEATHER SERVICE NORTH PLATTE NE
1000 PM CDT TUE SEP 27 2016

NOTE: "FAIR" INDICATES FEW OR NO CLOUDS BELOW 12,000 FEET WITH NO
SIGNIFICANT WEATHER AND/OR OBSTRUCTIONS TO VISIBILITY.

NOTE: STATIONS NOT REPORTING VARIABLES SUCH AS SKY/WEATHER OR
PRESSURE ARE PROVIDED BY RAWS AND APRS NETWORKS AND ARE NOT UNDER
NATIONAL WEATHER SERVICE QUALITY CONTROL.

...OBSERVATIONS IN AND NEAR THE EASTERN PANHANDLE OF NEBRASKA...

CITY           SKY/WX    TMP DP  RH WIND       PRES   REMARKS
PINE RIDGE     CLEAR     53  43  68 E3        30.05R
CHADRON        CLEAR     56  43  61 W5        30.06R
ALLIANCE       CLEAR     53  40  61 SW5       30.08R
SIDNEY         CLEAR     52  34  50 NW3       30.11R
CRESCENT LAKE    N/A     65  40  39 NW6         N/A
$$

...OBSERVATIONS IN NORTHERN NEBRASKA AND FAR SOUTHERN SOUTH DAKOTA...

CITY           SKY/WX    TMP DP  RH WIND       PRES   REMARKS
WINNER         FAIR      65  43  44 E6        29.97R
VALENTINE      CLEAR     59  40  49 CALM      30.00R
THEDFORD       CLEAR     59  44  56 W3        30.02R
AINSWORTH      CLEAR     58  46  66 N5        29.99R
O`NEILL        CLEAR     61  44  53 NW5       29.95S
ORD            CLEAR     56  43  61 NW6       29.95R
BROKEN BOW     CLEAR     58  42  55 N9        29.97R
VALENTINE NWR    N/A     59  42  53 N5          N/A
BUTTE            N/A     62  46  56 N5          N/A
HALSEY           N/A     64  41  43 CALM        N/A
EWING            N/A     57  48  72 CALM        N/A
$$

...OBSERVATIONS IN SOUTHWEST NEBRASKA AND FAR NORTHEAST COLORADO...

CITY           SKY/WX    TMP DP  RH WIND       PRES   REMARKS
WRAY           FAIR      61  32  33 CALM      30.06
HOLYOKE        FAIR      54  41  62 CALM      30.07R
IMPERIAL       CLEAR     63  40  42 NW3       30.03R
OGALLALA       CLEAR     57  39  52 CALM      30.04R
NORTH PLATTE   CLEAR     59  46  62 CALM      30.00R
MCCOOK         CLEAR     60  44  55 W7        29.98R
LEXINGTON      CLEAR     57  47  67 CALM      29.97R
STAPLETON        N/A     62  44  51 CALM        N/A
GOTHENBURG       N/A     70  40  33 N3          N/A
CALLAWAY         N/A     55  47  74 N5          N/A
$$

...OBSERVATIONS IN CENTRAL LINCOLN COUNTY AREA...

CITY           SKY/WX    TMP DP  RH WIND       PRES   REMARKS
N.P. AIRPORT   CLEAR     59  46  62 CALM      30.00R
N.P. DOWNTOWN    N/A     62  45  54 CALM        N/A
N.P. SOUTHEAST   N/A     64  44  49 CALM        N/A
N.P. HILLCREST   N/A     68  43  39 NE12        N/A
$$

...SOME OBSERVATIONS FROM AROUND THE REGION...

CITY           SKY/WX    TMP DP  RH WIND       PRES   REMARKS
DENVER         CLEAR     63  22  20 CALM      30.17R
LARAMIE        CLEAR     53  31  42 SE3       30.31R
CHEYENNE       CLEAR     56  28  34 W8        30.24R
SCOTTSBLUFF    CLEAR     59  42  53 N3        30.10R
RAPID CITY     CLEAR     62  42  47 N10       30.05R
BISMARCK       CLEAR     52  43  71 NE5       30.00R
PIERRE         CLEAR     58  42  55 NE8       29.95R
SIOUX FALLS    PTCLDY    55  42  61 N8        29.91R
OMAHA          CLEAR     61  52  72 SE3       29.87R
GRAND ISLAND   CLEAR     62  48  60 N7        29.93R
KANSAS CITY    CLEAR     67  53  61 CALM      29.88S
WICHITA        CLEAR     64  56  75 S6        29.93S
OKLAHOMA CITY  CLEAR     60  51  72 S6        30.01R
DALLAS         PTCLDY    67  48  50 SW7       30.03R
AMARILLO       CLEAR     59  40  49 S9        30.12R
DODGE CITY     CLEAR     66  41  40 SW5       30.00R
HAYS           CLEAR     66  45  45 CALM      29.96R
GOODLAND       CLEAR     52  42  69 N3        30.06R
$$




USA.gov is the U.S. government's official web portal to all federal, state and local government web resources and services.